Weather History for Champaign, IL

Change the Weather History Date:

Saturday, November 9, 2013

  Actual Average Record
Temperature  
Mean Temperature 51 °F 45 °F  
Max Temperature 64 °F 55 °F 74 °F (2010)
Min Temperature 38 °F 35 °F 21 °F (2003)
Degree Days  
Heating Degree Days 14 20  
Month to date heating degree days 174 166  
Since 1 July heating degree days 566 627  
Cooling Degree Days 0 0  
Month to date cooling degree days 0 0  
Year to date cooling degree days 1067 944  
Growing Degree Days 2 (Base 50)    
Moisture  
Dew Point 36 °F    
Average Humidity 59    
Maximum Humidity 79    
Minimum Humidity 39    
Precipitation  
Precipitation 0.00 in 0.11 in 1.41 in (2000)
Month to date precipitation 0.34 1.01  
Year to date precipitation 29.10 34.71  
Sea Level Pressure  
Sea Level Pressure 30.07 in    
Wind  
Wind Speed 15 mph (WSW)    
Max Wind Speed 26 mph    
Max Gust Speed 32 mph    
Visibility 10 miles    
Events      
T = Trace of Precipitation, MM = Missing Value Source: NWS Daily Summary

Daily Weather History Graph

Daily Weather History Graph

Search for Another Location

Airport:

Trip Planner

Search our weather history database for the weather conditions in past years. The results will help you decide how hot, cold, wet, or windy it might be!

Date:

Astronomy

Nov. 09, 2013 Rise Set
Actual Time 6:31 AM CST 4:41 PM CST
Civil Twilight 6:03 AM CST 5:10 PM CST
Nautical Twilight 5:30 AM CST 5:42 PM CST
Astronomical Twilight 4:58 AM CST 6:14 PM CST
Moon 12:08 PM CST (11/9) 11:11 PM CST (11/9)
Length of Visible Light 11h 07m
Length of Day
10h 10m
Waxing Crescent, 44% of the Moon is Illuminated
Nov 9
Waxing Crescent
Nov 9
First Quarter
Nov 17
Full
Nov 25
Last Quarter
Dec 2
New

Hourly Weather History & Observations

Time (CST) Temp. Windchill Dew Point Humidity Pressure Visibility Wind Dir Wind Speed Gust Speed Precip Events Conditions
12:53 AM 43.0 °F 35.4 °F 33.1 °F 68% 30.08 in 10.0 mi South 16.1 mph - N/A   Partly Cloudy
1:53 AM 41.0 °F 32.5 °F 33.1 °F 73% 30.05 in 10.0 mi South 17.3 mph - N/A   Clear
2:53 AM 42.1 °F 33.9 °F 33.1 °F 70% 30.04 in 10.0 mi South 17.3 mph - N/A   Clear
3:53 AM 44.1 °F 35.7 °F 34.0 °F 68% 30.01 in 10.0 mi South 20.7 mph 28.8 mph N/A   Clear
4:53 AM 44.1 °F 36.5 °F 34.0 °F 68% 30.02 in 10.0 mi SSW 17.3 mph - N/A   Clear
5:53 AM 41.0 °F 34.3 °F 34.0 °F 76% 30.03 in 10.0 mi SSW 11.5 mph - N/A   Clear
6:53 AM 43.0 °F 36.8 °F 35.1 °F 74% 30.04 in 10.0 mi SW 11.5 mph - N/A   Clear
7:53 AM 48.0 °F - 37.0 °F 66% 30.05 in 10.0 mi SW 17.3 mph - N/A   Clear
8:53 AM 52.0 °F - 39.0 °F 61% 30.05 in 10.0 mi SW 20.7 mph 32.2 mph N/A   Clear
9:53 AM 55.9 °F - 39.0 °F 53% 30.05 in 10.0 mi WSW 21.9 mph 27.6 mph N/A   Clear
10:53 AM 59.0 °F - 39.9 °F 49% 30.04 in 10.0 mi WSW 19.6 mph 26.5 mph N/A   Clear
11:53 AM 61.0 °F - 41.0 °F 48% 30.02 in 10.0 mi WSW 19.6 mph 29.9 mph N/A   Clear
12:53 PM 63.0 °F - 39.9 °F 43% 30.01 in 10.0 mi WSW 21.9 mph 27.6 mph N/A   Clear
1:53 PM 64.0 °F - 39.9 °F 41% 30.02 in 10.0 mi WSW 20.7 mph 26.5 mph N/A   Clear
2:53 PM 63.0 °F - 37.9 °F 40% 30.02 in 10.0 mi WSW 23.0 mph 28.8 mph N/A   Clear
3:53 PM 61.0 °F - 36.0 °F 39% 30.04 in 10.0 mi West 18.4 mph - N/A   Clear
4:53 PM 54.0 °F - 37.0 °F 53% 30.07 in 10.0 mi WNW 10.4 mph - N/A   Clear
5:53 PM 48.0 °F - 37.0 °F 66% 30.09 in 10.0 mi West 8.1 mph - N/A   Clear
6:53 PM 48.9 °F - 37.0 °F 64% 30.12 in 10.0 mi West 10.4 mph - N/A   Clear
7:53 PM 44.1 °F 40.8 °F 36.0 °F 73% 30.13 in 10.0 mi West 5.8 mph - N/A   Clear
8:53 PM 42.1 °F 37.1 °F 35.1 °F 76% 30.14 in 10.0 mi WSW 8.1 mph - N/A   Clear
9:53 PM 39.9 °F 34.5 °F 34.0 °F 79% 30.17 in 10.0 mi West 8.1 mph - N/A   Clear
10:53 PM 42.1 °F 36.6 °F 34.0 °F 73% 30.17 in 10.0 mi West 9.2 mph - N/A   Clear
11:53 PM 39.0 °F 33.4 °F 34.0 °F 82% 30.20 in 10.0 mi WNW 8.1 mph - N/A   Clear